Lille, France

9:38 PM CEST on September 27, 2016 (GMT +0200)
Lesquin

Weather History for LFQQ - May, 2013

Change the Weather History Date:

Thursday, May 23, 2013

  Actual Average Record
Temperature  
Mean Temperature 46 °F -  
Max Temperature 50 °F 64 °F 77 °F (2011)
Min Temperature 41 °F 48 °F 39 °F (1998)
Degree Days  
Heating Degree Days 20    
Moisture  
Dew Point 38 °F    
Average Humidity 71    
Maximum Humidity 93    
Minimum Humidity 38    
Precipitation  
Precipitation 0.08 in - - ()
Sea Level Pressure  
Sea Level Pressure 29.85 in    
Wind  
Wind Speed 11 mph ()    
Max Wind Speed 22 mph    
Max Gust Speed -    
Visibility 6.4 miles    
Events Rain    
Averages and records for this station are not official NWS values.
T = Trace of Precipitation, MM = Missing Value Source: Averaged Metar Reports

Daily Weather History Graph

Daily Weather History Graph

Search for Another Location

Airport or City:

Trip Planner

Search our weather history database for the weather conditions in past years. The results will help you decide how hot, cold, wet, or windy it might be!

Date:

Astronomy

May. 23, 2013 Rise Set
Actual Time 5:49 AM CEST 9:40 PM CEST
Civil Twilight 5:07 AM CEST 10:22 PM CEST
Nautical Twilight 4:09 AM CEST 11:20 PM CEST
Astronomical Twilight 2:34 AM CEST 12:59 AM CEST
Moon 7:45 PM CEST (5/23) 4:36 AM CEST (5/23)
Length of Visible Light 17h 15m
Length of Day
15h 51m
Waxing Gibbous, 95% of the Moon is Illuminated
May 23
Waxing Gibbous
May 25
Full
May 31
Last Quarter
Jun 8
New
Jun 16
First Quarter

Hourly Weather History & Observations

Time (CEST) Temp. Windchill Dew Point Humidity Pressure Visibility Wind Dir Wind Speed Gust Speed Precip Events Conditions
12:00 AM 48.2 °F - 46.4 °F 93% 29.95 in 6.2 mi West 9.2 mph - N/A   Mostly Cloudy
1:00 AM 48.2 °F - 46.4 °F 93% 29.95 in 6.2 mi West 9.2 mph - N/A   Mostly Cloudy
2:00 AM 49 °F - 46 °F 85% 29.93 in 6 mi West 11.5 mph - -   Partly Cloudy
2:00 AM 48.2 °F - 46.4 °F 93% 29.92 in 6.2 mi West 11.5 mph - N/A   Mostly Cloudy
2:30 AM 48.2 °F - 44.6 °F 87% 29.89 in 6.2 mi West 11.5 mph - N/A   Unknown
3:00 AM 48.2 °F - 42.8 °F 82% 29.89 in 6.2 mi West 11.5 mph - N/A   Unknown
3:30 AM 46.4 °F 41.9 °F 42.8 °F 87% 29.86 in 6.2 mi West 9.2 mph - N/A   Unknown
4:00 AM 46.4 °F 41.5 °F 41.0 °F 81% 29.86 in 6.2 mi West 10.4 mph - N/A   Partly Cloudy
4:30 AM 46.4 °F 41.1 °F 39.2 °F 76% 29.86 in 6.2 mi WNW 11.5 mph - N/A   Scattered Clouds
5:00 AM 46.4 °F 41.1 °F 39.2 °F 76% 29.83 in 6.2 mi WNW 11.5 mph - N/A   Mostly Cloudy
5:30 AM 44.6 °F 38.8 °F 37.4 °F 76% 29.83 in 6.2 mi WNW 11.5 mph - N/A   Scattered Clouds
6:00 AM 44.6 °F 39.2 °F 37.4 °F 76% 29.83 in 6.2 mi WNW 10.4 mph - N/A   Scattered Clouds
6:30 AM 42.8 °F 37.5 °F 37.4 °F 81% 29.83 in 6.2 mi West 9.2 mph - N/A   Scattered Clouds
7:00 AM 44.6 °F 40.2 °F 39.2 °F 81% 29.83 in 6.2 mi WNW 8.1 mph - N/A   Mostly Cloudy
7:30 AM 44.6 °F 40.7 °F 41.0 °F 87% 29.83 in 6.2 mi NW 6.9 mph - N/A   Mostly Cloudy
8:00 AM 45 °F - 39 °F 72% 29.84 in 16 mi North 6.9 mph - -   Partly Cloudy
8:00 AM 44.6 °F 40.7 °F 39.2 °F 81% 29.83 in 6.2 mi North 6.9 mph - N/A   Scattered Clouds
8:30 AM 44.6 °F 39.2 °F 37.4 °F 76% 29.83 in 6.2 mi North 10.4 mph - N/A   Mostly Cloudy
9:00 AM 46.4 °F 40.4 °F 39.2 °F 76% 29.83 in 6.2 mi North 13.8 mph - N/A   Mostly Cloudy
9:30 AM 46.4 °F 39.5 °F 37.4 °F 71% 29.83 in 6.2 mi NNW 17.3 mph - N/A   Scattered Clouds
10:30 AM 42.8 °F 36.6 °F 37.4 °F 81% 29.83 in 6.2 mi NNW 11.5 mph - N/A   Scattered Clouds
11:00 AM 46.4 °F 40.7 °F 39.2 °F 76% 29.83 in 6.2 mi WNW 12.7 mph - N/A   Scattered Clouds
11:30 AM 42.8 °F 34.5 °F 37.4 °F 81% 29.83 in 6.2 mi NNW 18.4 mph - N/A Rain Light Rain Showers
12:00 PM 42.8 °F 34.8 °F 37.4 °F 81% 29.83 in 6.2 mi North 17.3 mph - N/A Rain Light Rain Showers
12:30 PM 44.6 °F 36.9 °F 37.4 °F 76% 29.83 in 6.2 mi NNW 18.4 mph - N/A Rain Light Rain
1:00 PM 46.4 °F 40.1 °F 37.4 °F 71% 29.83 in 6.2 mi NNW 15.0 mph - N/A Rain Light Rain Showers
1:30 PM 48.2 °F - 39.2 °F 71% 29.83 in 6.2 mi NNW 21.9 mph - N/A   Scattered Clouds
2:00 PM 49 °F - 37 °F 53% 29.86 in 31 mi NNW 17.3 mph - - Rain Light Rain Showers
2:00 PM 50.0 °F - 37.4 °F 62% 29.83 in 6.2 mi North 18.4 mph - N/A   Scattered Clouds
2:30 PM 46.4 °F 40.4 °F 39.2 °F 76% 29.83 in 6.2 mi NNW 13.8 mph - N/A   Scattered Clouds
3:30 PM 48.2 °F - 37.4 °F 66% 29.83 in 6.2 mi North 16.1 mph - N/A Rain Light Rain Showers
4:00 PM 46.4 °F 38.7 °F 33.8 °F 62% 29.83 in 6.2 mi North 20.7 mph - N/A   Partly Cloudy
4:30 PM 48.2 °F - 35.6 °F 62% 29.83 in 6.2 mi North 12.7 mph - N/A   Mostly Cloudy
5:00 PM 48.2 °F - 35.6 °F 62% 29.83 in 6.2 mi North 15.0 mph - N/A   Mostly Cloudy
5:30 PM 48.2 °F - 33.8 °F 58% 29.86 in 6.2 mi NNW 12.7 mph - N/A   Mostly Cloudy
6:00 PM 50.0 °F - 33.8 °F 54% 29.86 in 6.2 mi NNW 13.8 mph - N/A   Mostly Cloudy
6:30 PM 50.0 °F - 32.0 °F 50% 29.86 in 6.2 mi NNW 12.7 mph - N/A   Mostly Cloudy
7:00 PM 48.2 °F - 30.2 °F 50% 29.86 in 6.2 mi NNW 12.7 mph - N/A   Scattered Clouds
7:30 PM 50.0 °F - 32.0 °F 50% 29.86 in 6.2 mi NNW 10.4 mph - N/A   Scattered Clouds
8:00 PM 49 °F - 31 °F 38% 29.87 in 31 mi NNW 12.7 mph - -   Partly Cloudy
8:00 PM 48.2 °F - 32.0 °F 54% 29.86 in 6.2 mi NNW 12.7 mph - N/A   Partly Cloudy
8:30 PM 48.2 °F - 30.2 °F 50% 29.86 in 6.2 mi North 10.4 mph - N/A   Partly Cloudy
9:00 PM 46.4 °F 41.5 °F 32.0 °F 57% 29.86 in - NNW 10.4 mph - N/A   Clear
9:30 PM 44.6 °F 40.2 °F 33.8 °F 66% 29.86 in - NNW 8.1 mph - N/A   Clear
10:00 PM 42.8 °F 38.6 °F 33.8 °F 70% 29.89 in - NW 6.9 mph - N/A   Clear
10:30 PM 41.0 °F 38.0 °F 33.8 °F 76% 29.89 in - WNW 4.6 mph - N/A   Clear
11:00 PM 41.0 °F 38.0 °F 33.8 °F 76% 29.89 in - WNW 4.6 mph - N/A   Clear